Weather History for KIOB - July, 2013

Change the Weather History Date:

Tuesday, July 2, 2013

  Actual Average Record
Temperature  
Mean Temperature 71 °F -  
Max Temperature 80 °F 85 °F 84 °F (2014)
Min Temperature 62 °F 63 °F 62 °F (2013)
Cooling Degree Days 6    
Growing Degree Days 21 (Base 50)    
Moisture  
Dew Point 65 °F    
Average Humidity 88    
Maximum Humidity 100    
Minimum Humidity 58    
Precipitation  
Precipitation 0.44 in - - ()
Sea Level Pressure  
Sea Level Pressure 30.01 in    
Wind  
Wind Speed 2 mph (South)    
Max Wind Speed 8 mph    
Max Gust Speed 29 mph    
Visibility 8 miles    
Events Fog , Rain    
Averages and records for this station are not official NWS values.
T = Trace of Precipitation, MM = Missing Value Source: NWS Daily Summary

Daily Weather History Graph

Daily Weather History Graph

Search for Another Location

Airport or City:

Trip Planner

Search our weather history database for the weather conditions in past years. The results will help you decide how hot, cold, wet, or windy it might be!

Date:

Astronomy

Jul. 02, 2013 Rise Set
Actual Time 6:17 AM EDT 9:02 PM EDT
Civil Twilight 5:46 AM EDT 9:33 PM EDT
Nautical Twilight 5:06 AM EDT 10:12 PM EDT
Astronomical Twilight 4:22 AM EDT 10:57 PM EDT
Moon 2:16 AM EDT (7/2) 4:17 PM EDT (7/2)
Length of Visible Light 15h 47m
Length of Day
14h 45m
Waning Crescent, 26% of the Moon is Illuminated
Jul 2
Waning Crescent
Jul 8
New
Jul 15
First Quarter
Jul 22
Full
Jul 29
Last Quarter

Hourly Weather History & Observations

Time (EDT) Temp. Heat Index Dew Point Humidity Pressure Visibility Wind Dir Wind Speed Gust Speed Precip Events Conditions
12:15 AM 64.4 °F - 64.4 °F 100% 29.95 in 0.8 mi Calm Calm - N/A   Overcast
12:35 AM 64.4 °F - 64.4 °F 100% 29.96 in 2.0 mi East 4.6 mph - N/A   Overcast
12:55 AM 64.4 °F - 64.4 °F 100% 29.96 in 2.0 mi East 5.8 mph - N/A   Overcast
1:15 AM 64.4 °F - 64.4 °F 100% 29.95 in 10.0 mi Calm Calm - N/A   Overcast
1:35 AM 64.4 °F - 64.4 °F 100% 29.95 in 10.0 mi Calm Calm - N/A   Scattered Clouds
1:55 AM 62.6 °F - 62.6 °F 100% 29.95 in 5.0 mi Calm Calm - N/A   Clear
2:15 AM 62.6 °F - 62.6 °F 100% 29.95 in 10.0 mi Calm Calm - N/A   Clear
2:35 AM 62.6 °F - 62.6 °F 100% 29.95 in 0.8 mi Calm Calm - N/A   Overcast
2:55 AM 62.6 °F - 62.6 °F 100% 29.95 in 10.0 mi Calm Calm - N/A   Overcast
3:15 AM 62.6 °F - 62.6 °F 100% 29.94 in 5.0 mi Calm Calm - N/A   Overcast
3:35 AM 62.6 °F - 62.6 °F 100% 29.95 in 1.2 mi SE 3.5 mph - N/A   Overcast
3:55 AM 62.6 °F - 62.6 °F 100% 29.95 in 1.5 mi Calm Calm - N/A   Overcast
4:15 AM 62.6 °F - 62.6 °F 100% 29.94 in 1.2 mi Calm Calm - N/A   Overcast
4:35 AM 62.6 °F - 62.6 °F 100% 29.95 in 0.5 mi Calm Calm - N/A Fog Fog
4:55 AM 62.6 °F - 62.6 °F 100% 29.95 in 0.5 mi Calm Calm - N/A Fog Fog
5:15 AM 62.6 °F - 62.6 °F 100% 29.95 in 0.8 mi Calm Calm - N/A   Overcast
5:35 AM 62.6 °F - 62.6 °F 100% 29.95 in 0.5 mi Calm Calm - N/A Fog Fog
5:55 AM 62.6 °F - 62.6 °F 100% 29.96 in 0.5 mi Calm Calm - N/A Fog Fog
6:15 AM 62.6 °F - 62.6 °F 100% 29.96 in 3.0 mi East 3.5 mph - N/A   Overcast
6:35 AM 62.6 °F - 62.6 °F 100% 29.97 in 1.0 mi Calm Calm - N/A   Overcast
6:55 AM 62.6 °F - 62.6 °F 100% 29.98 in 0.5 mi East 3.5 mph - N/A Fog Fog
7:15 AM 62.6 °F - 62.6 °F 100% 29.99 in 4.0 mi ESE 3.5 mph - N/A   Overcast
7:35 AM 62.6 °F - 62.6 °F 100% 29.99 in 7.0 mi ESE 3.5 mph - N/A   Overcast
7:55 AM 62.6 °F - 62.6 °F 100% 30.00 in 10.0 mi Calm Calm - N/A   Overcast
8:15 AM 64.4 °F - 62.6 °F 94% 30.00 in 10.0 mi Calm Calm - N/A   Overcast
8:35 AM 64.4 °F - 62.6 °F 94% 30.01 in 10.0 mi Calm Calm - N/A   Overcast
8:55 AM 64.4 °F - 62.6 °F 94% 30.01 in 10.0 mi Calm Calm - N/A   Mostly Cloudy
9:15 AM 66.2 °F - 64.4 °F 94% 30.01 in 10.0 mi Calm Calm - N/A   Scattered Clouds
9:35 AM 68.0 °F - 64.4 °F 88% 30.02 in 10.0 mi SSE 3.5 mph - N/A   Clear
10:15 AM 71.6 °F - 66.2 °F 83% 30.03 in 10.0 mi SSW 3.5 mph - N/A   Mostly Cloudy
10:35 AM 71.6 °F - 68.0 °F 88% 30.03 in 10.0 mi WSW 6.9 mph - N/A   Mostly Cloudy
10:55 AM 71.6 °F - 68.0 °F 88% 30.03 in 10.0 mi SW 4.6 mph - N/A   Scattered Clouds
11:15 AM 71.6 °F - 66.2 °F 83% 30.03 in 10.0 mi WSW 4.6 mph - N/A   Mostly Cloudy
11:35 AM 73.4 °F - 66.2 °F 78% 30.03 in 10.0 mi SW 4.6 mph - N/A   Mostly Cloudy
11:55 AM 73.4 °F - 68.0 °F 83% 30.03 in 10.0 mi SW 3.5 mph - N/A   Mostly Cloudy
12:15 PM 73.4 °F - 68.0 °F 83% 30.04 in 10.0 mi SW 5.8 mph - N/A   Overcast
12:35 PM 75.2 °F - 68.0 °F 78% 30.04 in 10.0 mi SSW 5.8 mph - N/A   Overcast
12:55 PM 75.2 °F - 66.2 °F 73% 30.04 in 10.0 mi SSW 5.8 mph - N/A   Overcast
1:15 PM 77.0 °F - 68.0 °F 74% 30.03 in 10.0 mi SSW 5.8 mph - N/A   Mostly Cloudy
1:35 PM 77.0 °F - 66.2 °F 69% 30.03 in 10.0 mi WSW 4.6 mph - N/A   Mostly Cloudy
1:55 PM 77.0 °F - 66.2 °F 69% 30.03 in 10.0 mi West 5.8 mph - N/A   Mostly Cloudy
2:15 PM 78.8 °F - 64.4 °F 61% 30.03 in 10.0 mi South 5.8 mph - N/A   Mostly Cloudy
2:35 PM 80.6 °F 82.3 °F 64.4 °F 58% 30.03 in 10.0 mi Calm Calm - N/A   Scattered Clouds
2:55 PM 78.8 °F - 66.2 °F 65% 30.03 in 10.0 mi Calm Calm - N/A   Mostly Cloudy
3:15 PM 80.6 °F 82.7 °F 66.2 °F 61% 30.01 in 10.0 mi WNW 3.5 mph - N/A   Scattered Clouds
3:35 PM 80.6 °F 82.7 °F 66.2 °F 61% 30.01 in 10.0 mi SSW 5.8 mph - N/A   Mostly Cloudy
3:55 PM 77.0 °F - 68.0 °F 74% 30.01 in 10.0 mi NNW 6.9 mph - N/A   Overcast
4:15 PM 78.8 °F - 68.0 °F 69% 30.01 in 10.0 mi Calm Calm - N/A   Scattered Clouds
4:35 PM 80.6 °F 83.2 °F 68.0 °F 65% 30.01 in 10.0 mi NW 5.8 mph - N/A   Scattered Clouds
4:55 PM 80.6 °F 82.7 °F 66.2 °F 61% 30.01 in 10.0 mi NNW 4.6 mph - N/A   Mostly Cloudy
5:15 PM 77.0 °F - 68.0 °F 74% 30.00 in 10.0 mi North 8.1 mph - N/A   Mostly Cloudy
5:35 PM 69.8 °F - 64.4 °F 83% 30.03 in 0.8 mi ESE 4.6 mph 28.8 mph 0.41 in Rain Heavy Rain
5:55 PM 71.6 °F - 66.2 °F 83% 30.02 in 10.0 mi NNE 3.5 mph - 0.44 in   Mostly Cloudy
6:15 PM 73.4 °F - 66.2 °F 78% 30.01 in 10.0 mi Calm Calm - N/A   Mostly Cloudy
6:35 PM 73.4 °F - 64.4 °F 73% 30.02 in 10.0 mi SE 5.8 mph - N/A   Scattered Clouds
6:55 PM 73.4 °F - 68.0 °F 83% 30.03 in 10.0 mi SE 5.8 mph - N/A   Scattered Clouds
7:15 PM 73.4 °F - 68.0 °F 83% 30.03 in 10.0 mi East 3.5 mph - N/A   Scattered Clouds
7:35 PM 75.2 °F - 68.0 °F 78% 30.03 in 10.0 mi Calm Calm - N/A   Clear
7:55 PM 75.2 °F - 68.0 °F 78% 30.03 in 10.0 mi Calm Calm - N/A   Scattered Clouds
8:15 PM 75.2 °F - 68.0 °F 78% 30.04 in 10.0 mi Calm Calm - N/A   Scattered Clouds
8:35 PM 75.2 °F - 68.0 °F 78% 30.04 in 10.0 mi SE 8.1 mph - N/A   Scattered Clouds
8:55 PM 71.6 °F - 68.0 °F 88% 30.04 in 10.0 mi SSE 5.8 mph - N/A Rain Light Rain
9:15 PM 69.8 °F - 68.0 °F 94% 30.05 in 10.0 mi SE 3.5 mph - N/A   Clear
9:35 PM 69.8 °F - 68.0 °F 94% 30.05 in 10.0 mi SSE 4.6 mph - N/A   Clear
9:55 PM 69.8 °F - 68.0 °F 94% 30.06 in 10.0 mi Calm Calm - N/A   Clear
10:15 PM 68.0 °F - 68.0 °F 100% 30.07 in 10.0 mi Calm Calm - N/A   Clear
10:35 PM 68.0 °F - 68.0 °F 100% 30.07 in 5.0 mi Calm Calm - N/A   Clear
10:55 PM 68.0 °F - 68.0 °F 100% 30.07 in 7.0 mi South 3.5 mph - N/A   Mostly Cloudy
11:15 PM 69.8 °F - 68.0 °F 94% 30.07 in 10.0 mi SSE 4.6 mph - N/A   Mostly Cloudy
11:35 PM 68.0 °F - 68.0 °F 100% 30.08 in 7.0 mi SW 3.5 mph - N/A   Scattered Clouds
11:55 PM 69.8 °F - 68.0 °F 94% 30.08 in 10.0 mi South 5.8 mph - N/A   Overcast